Temp
-12 -12 -11 -11 -11 -11 -12 -11 -11 -10 -11 -11 -10 -10 -10 -10 -9 -9 -9 -9 -9 -8 -9 -9 -9 -9 -9 -9 -10 -9 -10 -10 -10 -10 -10 -10 -10 -10 -10 -10 -10 -10 -10 -10
-13 -12 -12 -12 -12 -12 -12 -12 -10 -10 -11 -12 -10 -10 -10 -10 -10 -9 -9 -9 -9 -8 -8 -9 -9 -9 -9 -9 -10 -10 -10 -10 -10 -10 -10 -10 -10 -10 -10 -10 -10 -11 -11 -10
-13 -12 -13 -12 -12 -12 -12 -12 -11 -11 -12 -12 -11 -10 -9 -9 -10 -10 -9 -9 -9 -9 -9 -9 -10 -10 -9 -9 -10 -10 -10 -10 -11 -11 -11 -11 -11 -10 -10 -11 -10 -11 -10 -10
-13 -12 -12 -13 -12 -13 -12 -12 -12 -12 -13 -12 -13 -11 -10 -9 -10 -10 -11 -10 -9 -10 -10 -10 -9 -9 -9 -10 -10 -10 -10 -10 -10 -11 -11 -11 -11 -11 -11 -11 -11 -11 -11 -11
-13 -13 -13 -13 -12 -13 -13 -13 -14 -13 -14 -14 -12 -14 -8 -10 -9 -10 -10 -11 -10 -10 -9 -9 -10 -10 -10 -9 -9 -10 -10 -10 -11 -11 -11 -12 -11 -11 -11 -11 -11 -11 -11 -12
-13 -13 -13 -13 -13 -13 -13 -13 -13 -14 -14 -14 -10 -13 -9 -9 -9 -9 -10 -10 -11 -11 -10 -10 -10 -11 -10 -10 -10 -10 -10 -11 -10 -11 -11 -12 -12 -11 -11 -11 -12 -12 -11 -12
-15 -14 -14 -14 -14 -15 -15 -15 -14 -14 -14 -13 -11 -14 -11 -9 -9 -10 -10 -10 -10 -11 -11 -11 -11 -10 -10 -9 -9 -10 -10 -11 -11 -11 -11 -11 -12 -11 -11 -11 -12 -12 -12 -12
-15 -15 -15 -14 -14 -14 -15 -16 -16 -15 -15 -14 -14 -14 -12 -11 -11 -10 -10 -10 -10 -11 -11 -11 -11 -12 -11 -10 -10 -10 -10 -11 -11 -12 -11 -12 -12 -12 -11 -11 -12 -12 -12 -12
-16 -15 -15 -15 -15 -15 -14 -15 -15 -17 -15 -16 -14 -13 -12 -10 -9 -11 -11 -11 -11 -11 -12 -11 -12 -11 -11 -11 -10 -10 -10 -11 -11 -12 -12 -12 -12 -11 -11 -11 -11 -12 -12 -12
-16 -15 -15 -15 -15 -15 -15 -15 -15 -16 -16 -16 -14 -13 -11 -10 -11 -11 -12 -12 -12 -12 -12 -12 -11 -11 -11 -11 -11 -11 -10 -10 -11 -12 -12 -12 -11 -11 -11 -11 -12 -12 -12 -11
-17 -16 -15 -16 -16 -15 -17 -16 -17 -18 -19 -18 -16 -15 -13 -11 -11 -11 -12 -12 -12 -13 -14 -13 -12 -12 -12 -12 -11 -11 -11 -10 -12 -12 -12 -11 -11 -11 -11 -11 -11 -12 -12 -12
-20 -17 -15 -15 -16 -16 -16 -18 -19 -19 -18 -18 -18 -16 -13 -13 -13 -12 -12 -12 -13 -13 -13 -13 -13 -13 -12 -12 -11 -11 -12 -12 -12 -12 -12 -12 -11 -11 -11 -11 -11 -11 -12 -12
-21 -19 -16 -15 -16 -18 -18 -17 -19 -19 -19 -19 -18 -17 -14 -13 -13 -13 -12 -12 -12 -14 -13 -13 -12 -13 -13 -12 -13 -13 -13 -13 -13 -13 -12 -12 -12 -11 -12 -12 -12 -12 -12 -12
-21 -20 -18 -16 -16 -17 -18 -19 -19 -19 -18 -18 -19 -17 -16 -14 -15 -14 -14 -13 -13 -14 -14 -13 -13 -13 -13 -13 -13 -13 -14 -13 -13 -13 -12 -12 -12 -12 -12 -12 -12 -12 -12 -12
-22 -21 -20 -17 -17 -17 -17 -17 -18 -19 -18 -20 -17 -19 -17 -16 -15 -15 -15 -14 -14 -14 -14 -14 -13 -13 -13 -13 -14 -14 -14 -13 -13 -13 -12 -12 -12 -11 -12 -12 -13 -13 -13 -12
-21 -20 -20 -18 -18 -19 -19 -17 -17 -19 -19 -20 -20 -19 -18 -18 -17 -16 -15 -15 -15 -14 -14 -14 -14 -14 -13 -13 -13 -14 -14 -14 -13 -12 -13 -13 -13 -12 -12 -12 -13 -12 -12 -12
-22 -22 -22 -20 -21 -21 -19 -17 -19 -19 -19 -20 -20 -20 -19 -18 -18 -17 -15 -16 -16 -15 -16 -14 -14 -14 -14 -14 -14 -14 -14 -14 -13 -13 -13 -13 -13 -13 -13 -13 -13 -13 -13 -13
-21 -23 -23 -22 -22 -22 -19 -20 -20 -21 -20 -20 -21 -20 -19 -18 -18 -17 -17 -16 -16 -16 -16 -15 -15 -14 -14 -14 -14 -14 -14 -13 -13 -13 -13 -13 -14 -14 -13 -13 -14 -14 -13 -13
-23 -24 -24 -24 -24 -23 -21 -20 -23 -23 -22 -22 -22 -22 -21 -20 -18 -18 -18 -17 -16 -17 -16 -16 -15 -15 -15 -14 -14 -14 -14 -14 -14 -14 -13 -13 -13 -13 -13 -14 -14 -14 -13 -13
-24 -24 -25 -24 -25 -24 -23 -22 -23 -24 -24 -23 -23 -22 -22 -22 -20 -18 -18 -19 -18 -17 -17 -16 -16 -15 -15 -14 -14 -14 -14 -13 -14 -14 -14 -13 -13 -13 -14 -14 -14 -14 -13 -14
-24 -24 -25 -25 -25 -24 -23 -23 -24 -25 -23 -23 -23 -24 -23 -23 -22 -20 -19 -19 -18 -18 -17 -17 -16 -16 -16 -16 -15 -14 -14 -13 -14 -14 -13 -13 -13 -14 -14 -14 -14 -14 -14 -14
-25 -25 -25 -25 -24 -24 -23 -24 -24 -24 -24 -24 -24 -23 -23 -23 -22 -21 -20 -18 -17 -17 -16 -16 -16 -16 -16 -16 -16 -14 -14 -13 -13 -13 -14 -14 -14 -14 -14 -15 -14 -14 -14 -14
-25 -25 -25 -25 -24 -24 -23 -24 -24 -24 -23 -23 -23 -23 -23 -23 -22 -22 -20 -19 -18 -17 -16 -15 -15 -15 -16 -16 -15 -15 -14 -14 -13 -13 -14 -14 -14 -15 -15 -15 -15 -14 -14 -14
-25 -25 -25 -25 -24 -24 -24 -24 -24 -24 -24 -24 -24 -23 -23 -23 -22 -22 -20 -20 -19 -19 -18 -17 -16 -16 -15 -15 -14 -14 -14 -14 -14 -14 -14 -15 -14 -15 -14 -14 -14 -14 -14 -14
-24 -24 -24 -24 -23 -24 -24 -24 -24 -24 -24 -24 -24 -24 -23 -23 -23 -22 -21 -20 -19 -19 -18 -18 -17 -17 -16 -16 -15 -15 -15 -15 -14 -14 -15 -15 -15 -14 -14 -14 -14 -15 -14 -15
-24 -24 -25 -24 -24 -24 -24 -24 -24 -24 -24 -24 -24 -24 -23 -23 -22 -22 -21 -20 -20 -19 -18 -18 -18 -17 -16 -16 -16 -16 -16 -15 -15 -15 -15 -14 -14 -15 -15 -15 -15 -15 -15 -15
Height
5782 5785 5793 5803 5807 5801 5802 5805 5808 5816 5820 5819 5822 5822 5826 5833 5835 5835 5835 5836 5839 5842 5843 5844 5841 5836 5836 5839 5841 5845 5841 5838 5836 5835 5832 5831 5831 5830 5831 5829 5828 5828 5829 5829
5768 5774 5790 5792 5785 5788 5790 5794 5800 5804 5807 5805 5810 5809 5816 5818 5821 5826 5828 5829 5831 5835 5836 5839 5839 5835 5834 5835 5835 5833 5836 5832 5831 5830 5827 5824 5822 5823 5823 5824 5822 5821 5821 5821
5755 5773 5776 5775 5775 5776 5780 5781 5790 5790 5794 5792 5792 5794 5803 5809 5810 5812 5820 5821 5821 5825 5831 5831 5831 5831 5826 5826 5826 5827 5827 5826 5823 5822 5821 5819 5815 5815 5815 5816 5815 5814 5813 5814
5745 5759 5760 5763 5763 5767 5767 5778 5776 5777 5778 5775 5785 5778 5792 5802 5800 5803 5804 5812 5813 5814 5821 5823 5824 5823 5822 5819 5817 5818 5819 5820 5817 5815 5812 5810 5808 5807 5807 5807 5806 5806 5806 5807
5745 5743 5746 5745 5756 5753 5751 5759 5759 5761 5759 5759 5766 5764 5774 5788 5788 5794 5796 5797 5803 5807 5809 5811 5814 5815 5814 5813 5811 5809 5809 5811 5810 5808 5805 5803 5801 5799 5798 5798 5797 5796 5796 5799
5728 5729 5732 5739 5741 5739 5739 5746 5745 5746 5745 5741 5759 5753 5763 5776 5782 5787 5792 5791 5792 5794 5799 5802 5804 5803 5802 5802 5801 5801 5803 5804 5803 5801 5797 5795 5793 5793 5791 5789 5788 5787 5785 5787
5709 5716 5718 5722 5723 5727 5727 5731 5726 5723 5724 5724 5748 5736 5750 5765 5769 5772 5778 5783 5784 5784 5785 5789 5791 5793 5794 5794 5792 5790 5791 5793 5794 5793 5790 5787 5785 5784 5783 5782 5779 5778 5777 5778
5695 5704 5709 5711 5710 5713 5714 5715 5713 5709 5710 5718 5727 5714 5735 5754 5756 5759 5762 5767 5770 5773 5774 5775 5775 5777 5781 5784 5783 5781 5782 5782 5783 5781 5779 5776 5774 5773 5773 5772 5770 5768 5768 5768
5682 5693 5696 5699 5695 5699 5700 5700 5706 5697 5699 5696 5702 5708 5719 5738 5740 5745 5747 5751 5754 5755 5759 5759 5761 5761 5764 5769 5771 5771 5774 5773 5774 5771 5768 5764 5763 5762 5763 5762 5761 5759 5759 5758
5674 5681 5683 5685 5685 5692 5682 5688 5688 5686 5682 5680 5683 5690 5703 5732 5732 5734 5735 5737 5739 5739 5741 5744 5748 5749 5752 5754 5757 5758 5762 5762 5763 5759 5758 5754 5751 5751 5751 5752 5751 5751 5748 5747
5660 5669 5676 5674 5675 5675 5675 5674 5672 5673 5673 5669 5669 5672 5698 5710 5714 5715 5718 5721 5725 5724 5727 5728 5730 5734 5736 5738 5742 5745 5749 5751 5751 5749 5747 5744 5743 5741 5740 5740 5740 5740 5738 5738
5646 5652 5664 5665 5666 5666 5662 5665 5658 5658 5661 5660 5659 5659 5689 5688 5691 5693 5695 5703 5710 5709 5712 5711 5716 5722 5724 5727 5731 5734 5737 5739 5740 5737 5736 5733 5731 5731 5729 5729 5729 5728 5728 5725
5638 5639 5646 5651 5653 5653 5652 5651 5649 5647 5647 5649 5647 5647 5681 5675 5677 5678 5677 5683 5691 5694 5696 5697 5701 5708 5712 5715 5717 5721 5724 5726 5727 5725 5725 5720 5720 5719 5719 5717 5715 5715 5716 5716
5627 5630 5632 5637 5640 5635 5636 5638 5638 5636 5636 5639 5635 5642 5657 5666 5664 5665 5665 5667 5671 5677 5678 5683 5689 5691 5695 5701 5705 5708 5711 5712 5714 5713 5711 5708 5709 5708 5706 5706 5705 5704 5704 5703
5614 5613 5614 5621 5624 5618 5615 5625 5630 5624 5627 5618 5630 5626 5636 5650 5655 5649 5651 5655 5657 5662 5668 5672 5675 5677 5681 5682 5688 5690 5693 5697 5699 5699 5698 5696 5697 5697 5695 5694 5694 5693 5691 5693
5604 5601 5600 5604 5609 5605 5601 5612 5613 5612 5613 5609 5612 5610 5624 5627 5635 5632 5636 5641 5645 5648 5649 5653 5654 5660 5663 5664 5670 5674 5677 5681 5685 5687 5685 5681 5682 5684 5682 5682 5681 5681 5678 5677
5589 5589 5589 5587 5595 5590 5586 5602 5593 5596 5599 5599 5594 5603 5610 5608 5619 5618 5618 5620 5626 5628 5630 5636 5638 5642 5649 5653 5655 5660 5665 5669 5672 5672 5673 5671 5669 5669 5669 5669 5666 5664 5664 5663
5579 5579 5577 5574 5580 5571 5584 5585 5583 5580 5582 5581 5581 5588 5592 5592 5597 5600 5598 5597 5607 5610 5612 5618 5624 5625 5628 5634 5640 5643 5648 5653 5656 5658 5658 5659 5658 5657 5656 5655 5654 5653 5650 5651
5567 5566 5564 5561 5563 5561 5567 5578 5570 5565 5563 5568 5567 5572 5574 5570 5581 5584 5581 5583 5585 5593 5600 5603 5611 5617 5615 5616 5629 5634 5637 5639 5641 5645 5646 5646 5647 5646 5644 5642 5641 5639 5639 5638
5557 5555 5553 5552 5548 5544 5557 5566 5556 5548 5536 5556 5556 5556 5555 5555 5555 5567 5566 5569 5569 5571 5580 5587 5595 5597 5604 5609 5613 5618 5623 5625 5627 5630 5632 5632 5632 5633 5631 5628 5626 5624 5624 5624
5548 5545 5542 5542 5537 5534 5550 5552 5540 5536 5542 5543 5538 5538 5542 5541 5541 5551 5553 5556 5556 5558 5563 5571 5576 5582 5589 5596 5599 5605 5610 5613 5613 5612 5616 5615 5616 5618 5617 5614 5612 5610 5610 5611
5536 5535 5533 5531 5528 5524 5540 5535 5530 5532 5530 5530 5527 5529 5527 5530 5531 5535 5540 5543 5544 5547 5548 5550 5556 5565 5572 5578 5583 5590 5595 5596 5597 5600 5600 5601 5602 5602 5602 5600 5598 5597 5596 5597
5522 5527 5525 5520 5517 5523 5523 5524 5521 5519 5516 5519 5516 5517 5515 5516 5517 5520 5526 5529 5532 5535 5534 5536 5540 5547 5558 5563 5565 5570 5578 5580 5582 5582 5583 5586 5586 5588 5586 5585 5586 5586 5584 5583
5514 5516 5507 5508 5511 5513 5512 5511 5510 5509 5507 5506 5503 5501 5501 5501 5504 5506 5511 5515 5518 5522 5522 5524 5528 5533 5537 5543 5550 5553 5557 5562 5564 5566 5568 5571 5572 5573 5571 5571 5571 5571 5569 5569
5507 5500 5499 5493 5500 5500 5496 5497 5497 5497 5495 5493 5492 5490 5487 5488 5491 5492 5497 5502 5506 5509 5510 5512 5515 5520 5522 5526 5532 5534 5539 5544 5547 5550 5552 5555 5557 5557 5557 5556 5556 5554 5552 5551
5496 5489 5482 5481 5486 5477 5482 5485 5484 5482 5483 5482 5479 5478 5476 5474 5477 5481 5485 5489 5494 5496 5495 5498 5494 5501 5513 5512 5516 5520 5523 5528 5532 5534 5537 5539 5540 5541 5541 5542 5537 5537 5535 5535
Wind_Speed
52 52 52 43 44 50 50 53 56 54 50 50 48 49 47 41 42 43 41 38 37 34 31 29 27 32 31 27 26 18 18 20 21 23 25 26 27 29 27 28 31 28 27 28
61 58 48 45 55 53 53 53 54 53 52 52 52 53 50 47 47 46 42 43 42 36 31 28 26 31 33 30 28 29 19 17 20 27 30 30 31 30 31 29 30 31 30 30
67 57 54 54 57 58 58 56 53 54 49 50 53 57 53 50 50 48 43 43 44 43 30 29 29 33 38 33 31 31 28 22 24 30 30 32 34 32 30 32 33 35 35 30
60 54 53 65 63 58 63 57 57 58 55 56 47 59 54 49 50 48 46 41 44 45 36 33 30 33 30 37 33 35 32 27 30 32 37 34 35 36 32 33 36 37 37 32
58 58 56 58 54 56 71 59 58 59 57 53 56 57 62 52 53 50 47 48 48 46 43 37 30 34 37 37 37 32 26 29 31 32 33 32 34 37 37 34 37 38 39 36
54 58 59 57 56 59 62 58 68 66 66 64 70 57 68 62 61 57 56 52 51 50 46 41 38 38 39 39 40 35 30 29 34 30 32 32 34 37 39 36 36 39 41 38
48 50 55 57 60 60 61 61 64 65 66 75 72 59 69 61 59 55 54 54 52 50 52 48 46 44 38 38 39 40 35 35 32 30 32 35 37 37 38 38 38 41 42 40
43 42 44 52 56 60 59 58 61 66 68 64 60 68 61 63 66 60 60 59 55 52 47 44 47 43 40 37 41 41 37 40 33 35 36 35 41 42 37 38 39 41 43 41
42 42 43 44 49 53 56 56 56 61 69 70 70 71 65 52 55 56 59 61 61 60 57 50 53 48 40 42 42 43 38 37 35 36 38 36 42 42 37 36 39 43 42 43
37 38 40 45 51 50 54 53 54 56 65 70 74 75 72 53 53 53 52 47 39 32 38 48 54 56 54 52 45 43 41 37 37 39 39 40 38 37 36 35 37 42 46 46
43 41 40 41 42 49 45 54 54 50 52 58 64 69 62 60 59 59 55 49 38 35 33 35 39 46 55 55 51 45 41 40 36 39 41 42 38 36 34 32 33 38 43 47
46 48 44 43 44 45 48 46 45 53 51 52 54 60 49 54 56 60 60 53 43 45 40 46 45 45 47 51 55 47 45 40 32 42 40 42 40 38 38 38 38 38 42 44
45 50 50 48 46 44 47 49 45 49 50 54 57 60 50 56 57 58 63 62 52 44 49 49 43 48 51 53 51 46 46 44 40 44 38 45 46 45 44 46 43 43 42 44
48 50 53 53 52 53 51 50 51 50 54 53 61 57 52 54 53 53 54 56 55 51 53 45 43 49 58 42 45 46 47 47 45 44 46 47 46 48 48 48 46 45 45 46
49 53 55 54 53 56 59 55 50 58 56 61 57 61 59 52 56 62 59 51 47 54 56 50 46 49 50 45 43 51 53 50 48 46 49 49 49 48 51 50 48 45 43 49
48 54 57 57 54 57 61 56 55 53 57 58 57 63 58 61 58 62 63 61 56 54 66 55 57 53 58 57 55 57 57 53 51 49 50 53 51 49 48 47 48 45 42 46
48 49 51 55 51 57 61 52 59 57 54 61 66 58 57 58 62 68 68 67 54 50 58 70 74 72 71 62 59 58 53 49 48 48 49 49 48 47 46 48 49 45 45 45
47 45 47 53 49 59 55 54 56 59 58 60 61 66 63 67 50 62 75 79 66 61 53 59 61 60 66 71 56 55 56 56 52 48 48 47 49 50 51 53 51 49 50 48
42 39 42 44 45 51 51 49 51 57 61 57 58 55 57 65 65 52 62 71 77 60 63 57 63 65 68 55 55 61 54 48 50 47 48 48 50 52 54 56 56 50 51 49
38 39 43 46 50 54 46 36 43 48 57 52 51 49 47 47 61 63 56 57 65 77 69 65 58 62 62 63 58 57 50 49 50 55 53 53 53 50 51 53 52 49 51 48
38 40 43 45 42 47 29 34 42 43 42 44 50 51 48 38 44 54 52 52 57 57 69 75 62 62 65 62 64 64 52 51 54 57 53 55 52 47 45 45 48 52 52 50
40 41 38 45 51 53 34 38 41 39 41 42 38 46 48 50 43 42 52 53 54 57 66 74 76 60 57 62 63 60 53 54 56 58 58 55 51 47 44 47 48 47 48 48
46 41 45 52 53 45 40 38 38 35 40 42 44 41 47 47 47 43 51 51 51 60 70 71 75 73 70 63 59 60 57 55 56 60 58 51 50 48 47 47 48 50 53 53
45 42 49 46 43 40 41 42 40 36 39 35 42 48 53 51 45 43 58 50 51 50 52 58 56 60 60 61 61 58 55 50 53 56 54 51 52 46 48 49 52 49 49 52
39 44 46 51 43 44 46 40 40 41 41 45 47 45 49 52 49 44 54 51 52 47 43 40 47 42 40 39 44 52 51 51 52 55 56 50 47 47 46 46 51 52 51 51
38 41 51 51 47 51 49 45 45 44 43 43 45 45 41 47 49 45 47 54 50 49 50 34 26 44 42 32 45 50 56 55 53 53 45 50 47 54 52 58 52 46 49 50
Wind_Direction
243 245 242 247 252 253 252 250 250 249 250 248 248 249 252 251 251 253 255 253 253 257 263 263 279 289 296 307 310 309 301 298 306 310 305 295 281 274 271 272 277 279 276 276
241 242 242 247 248 251 252 253 249 251 253 255 248 247 248 251 252 250 256 263 260 258 262 264 274 281 289 295 298 308 305 293 304 316 308 303 295 285 275 274 274 276 272 274
246 247 245 246 246 248 250 252 252 253 254 254 256 251 245 246 252 257 251 256 266 270 267 267 273 276 285 289 288 299 302 289 303 310 308 302 297 292 281 272 269 269 267 268
248 249 253 247 248 252 252 252 252 254 254 253 254 259 246 244 250 254 260 254 260 266 267 266 274 279 273 284 279 293 291 281 299 303 303 295 290 290 284 273 270 269 271 268
245 248 250 249 247 255 253 246 248 250 254 256 249 255 245 243 249 250 255 260 263 266 268 269 271 267 274 274 281 289 281 283 294 299 299 288 286 285 282 277 272 270 270 269
246 248 250 253 254 255 260 257 249 249 250 251 253 256 249 248 252 253 255 258 264 267 269 269 268 265 268 278 281 277 282 278 294 293 289 282 283 281 284 281 270 268 268 269
247 245 247 248 249 253 258 259 260 260 253 251 251 254 254 255 254 255 253 252 255 256 258 261 260 262 263 268 270 278 281 276 284 278 287 281 277 278 280 283 273 266 266 268
254 249 247 248 252 251 248 252 254 259 260 262 257 256 254 253 255 258 259 257 254 256 256 260 261 259 263 249 259 267 271 283 280 287 289 275 273 274 279 281 279 268 266 267
256 251 246 248 248 249 252 249 254 252 259 261 260 256 252 244 251 254 257 256 260 261 261 257 260 259 244 250 255 261 270 273 278 280 287 283 275 276 277 279 279 272 266 263
252 252 248 246 250 250 254 254 252 250 253 254 261 265 263 248 255 255 256 256 260 266 265 259 254 259 260 263 259 258 262 262 274 278 281 279 277 277 278 277 278 276 270 264
269 264 254 248 248 247 246 252 255 254 248 255 260 258 262 260 259 255 254 254 258 259 258 255 250 250 253 255 249 257 268 274 269 274 276 278 277 277 280 283 281 277 273 274
269 269 260 259 261 255 252 244 250 249 248 247 257 261 257 256 253 254 254 254 248 255 254 246 248 249 249 247 255 264 263 269 266 265 269 271 270 280 282 289 287 283 281 275
254 264 265 259 259 253 251 255 251 249 252 250 250 254 253 258 258 255 255 252 244 244 250 249 249 244 248 255 260 260 258 265 265 267 266 268 273 280 282 287 289 283 281 278
257 262 264 263 263 260 255 254 250 258 257 257 251 261 255 249 256 257 256 257 253 238 236 237 242 246 250 251 249 251 255 256 260 262 268 270 276 281 282 285 287 288 278 276
249 253 256 260 261 262 263 261 254 254 258 253 257 251 256 256 246 249 248 252 253 232 236 236 240 233 234 226 232 240 243 245 251 260 268 270 273 275 278 283 286 286 280 274
252 254 255 262 260 259 262 264 265 257 250 252 253 256 257 252 248 243 247 248 250 250 231 228 236 235 235 229 230 237 241 243 250 265 265 269 273 276 277 281 283 281 282 277
255 254 255 260 257 259 262 266 264 265 261 253 251 255 252 253 247 246 243 244 242 241 236 236 238 239 243 244 239 239 246 252 261 264 262 268 274 276 276 281 288 289 284 280
259 258 260 264 261 258 267 266 269 269 268 266 265 258 252 249 243 241 240 242 240 246 228 227 230 234 240 240 237 234 250 258 256 254 258 266 275 277 277 281 284 285 285 280
265 266 264 265 267 271 265 268 274 273 268 265 268 271 266 265 244 245 245 245 244 237 230 233 231 237 246 248 245 252 251 252 256 252 255 269 273 273 274 277 279 279 282 278
254 263 265 265 273 271 275 280 282 273 270 263 264 261 265 270 261 240 248 252 250 246 240 235 241 235 240 245 247 242 245 249 253 260 262 268 270 273 276 277 277 277 281 275
256 261 259 267 266 274 288 285 273 280 288 271 261 266 262 270 270 255 252 255 253 255 252 240 240 238 240 246 247 251 251 249 251 256 260 264 267 273 276 276 276 277 279 274
260 268 259 267 277 279 286 287 274 291 287 281 274 267 269 265 267 262 248 249 250 252 255 252 246 237 239 245 245 247 247 249 251 255 257 262 264 270 274 277 278 280 279 277
262 272 276 270 274 281 284 286 287 286 279 274 272 267 271 265 266 262 242 238 240 246 248 248 249 253 247 246 249 251 250 248 250 253 257 259 261 267 272 270 269 270 277 287
265 268 270 272 272 280 282 275 277 277 279 279 278 277 272 269 264 258 243 249 243 247 252 246 249 253 257 253 250 250 247 244 248 253 258 261 263 267 268 265 266 271 274 274
270 271 277 269 273 276 273 275 273 271 274 282 282 293 274 269 266 259 249 248 243 254 247 248 249 240 239 242 249 245 240 240 244 249 258 265 265 268 266 272 277 273 271 261
273 274 275 271 270 269 268 272 272 269 273 273 280 289 283 269 265 260 250 246 261 264 246 250 272 220 240 234 242 244 241 243 247 254 263 267 266 264 274 275 266 263 257 255